Tracking 25710 objects as of 6-Jul-2022
HD Live streaming from Space Station
objects crossing your sky now

FENGYUN 1C DEB

Track FENGYUN 1C DEB now!
10-day predictions


NORAD ID: 29885
Int'l Code: 1999-025GF
Perigee: 771.9 km
Apogee: 945.9 km
Inclination: 98.2 °
Period: 102.0 minutes
Semi major axis: 7229 km
RCS: 0.04 m2 (small)
Launch date: May 10, 1999
Source: People's Republic of China (PRC)
Launch site: Taiyaun Space Center, China (TSC)

Note: This is SATELLITE DEBRIS
aabbcc
Your satellite tracking list
Your tracking list is empty




NASA's NSSDC Master Catalog

Two Line Element Set (TLE):
1 29885U 99025GF  22186.77282832  .00000099  00000-0  69702-4 0  9991
2 29885  98.2286 199.7095 0120315 184.8385 349.7255 14.12232708797220
Source of the keplerian elements: AFSPC